Home > Weather > Lens > Past weeks

Flag for France Weather for the Past 2 Weeks in Lens, Nord-Pas-de-Calais, France

Now
48 °F

Sunny.


Feels Like: 43 °F
Forecast: 36 / 52 °F
Wind: 13 mph from Southwest

Location: Lille Airport

Current Time: Apr 29, 2016 at 4:13:12 PM

Latest Report: Apr 29, 2016 at 3:30 PM


Visibility: 10 mi

Pressure: 29.92 "Hg

Humidity: 76%

Dew Point: 41 °F

Location of LensLocation

Historic Weather in Lens — Graph

°F

Lens Temperature Yesterday

Maximum temperature yesterday: 54 °F (at 4:30 PM)
Minimum temperature yesterday: 32 °F (at 6:00 AM)
Average temperature yesterday: 44 °F

High & Low Weather Summary for the Past Weeks

 TemperatureHumidityPressure
High66 °F (Apr 21, 3:30 PM)100% (Apr 17, 4:30 AM)30.42 "Hg (Apr 17, 4:30 AM)
Low32 °F (Apr 28, 6:00 AM)32% (Apr 28, 6:30 PM)29.47 "Hg (Apr 15, 8:30 PM)
Average47 °F70%29.96 "Hg
* Reported Apr 14 3:00 PM — Apr 29 3:00 PM, Lens, Weather by CustomWeather, © 2016

Note: Actual official high and low records may vary slightly from our data, if they occured in-between our weather recording intervals... More about our weather records

Advertising

Lens Weather History for the Previous 24 Hours

Scroll right to see more
 ConditionsComfort  
Time TempWeatherWind HumidityBarometerVisibility
3:00 PM
Fri, Apr 29
48 °FBroken clouds.14 mph76%29.92 "HgN/A
2:30 PM48 °FMore clouds than sun.12 mph76%29.92 "HgN/A
2:00 PM46 °FLight rain. Mostly cloudy.12 mph82%29.92 "HgN/A
1:30 PM46 °FLight rain. Mostly cloudy.14 mph87%29.92 "HgN/A
1:00 PM46 °FMostly cloudy.12 mph87%29.92 "HgN/A
12:30 PM46 °FLight rain. Broken clouds.14 mph82%29.92 "HgN/A
12:00 PM46 °FLight rain. Broken clouds.10 mph82%29.92 "HgN/A
11:30 AM46 °FPartly sunny.12 mph87%29.92 "HgN/A
11:00 AM46 °FPartly sunny.12 mph82%29.89 "HgN/A
10:30 AM46 °FDrizzle. More clouds than sun.12 mph82%29.92 "HgN/A
10:00 AM45 °FLight rain. Mostly cloudy.12 mph87%29.92 "HgN/A
9:30 AM45 °FLight rain. Partly sunny.12 mph87%29.89 "HgN/A
9:00 AM45 °FMostly cloudy.10 mph81%29.89 "HgN/A
8:30 AM45 °FMostly cloudy.7 mph81%29.89 "HgN/A
8:00 AM43 °FLight rain. Mostly cloudy.10 mph87%29.89 "HgN/A
7:30 AM45 °FMostly cloudy.13 mph76%29.89 "HgN/A
7:00 AM43 °FClear.12 mph76%29.86 "Hg10 mi
6:30 AM43 °FPassing clouds.14 mph76%29.86 "HgN/A
6:00 AM43 °FPartly cloudy.12 mph76%29.86 "HgN/A
5:30 AM41 °FPartly cloudy.13 mph81%29.86 "HgN/A
4:30 AM43 °FClear.14 mph71%29.89 "Hg10 mi
4:00 AM43 °FClear.14 mph71%29.89 "Hg10 mi
3:30 AM43 °FClear.12 mph71%29.89 "Hg10 mi
3:00 AM43 °FClear.10 mph71%29.89 "Hg10 mi
2:30 AM43 °FPassing clouds.10 mph66%29.92 "HgN/A
2:00 AM43 °FClear.9 mph66%29.92 "Hg10 mi
1:30 AM41 °FClear.8 mph76%29.92 "Hg10 mi
1:00 AM41 °FClear.8 mph76%29.92 "Hg10 mi
12:30 AM41 °FClear.7 mph76%29.95 "Hg10 mi
12:00 AM41 °FClear.6 mph70%29.95 "Hg10 mi
11:30 PM
Thu, Apr 28
43 °FClear.6 mph61%29.95 "Hg10 mi
11:00 PM43 °FClear.5 mph61%29.95 "Hg10 mi
10:30 PM43 °FClear.8 mph57%29.95 "Hg10 mi
10:00 PM45 °FSunny.6 mph53%29.95 "Hg10 mi
9:30 PM46 °FSunny.10 mph50%29.95 "Hg10 mi
9:00 PM46 °FSunny.13 mph50%29.95 "Hg10 mi
8:30 PM48 °FSunny.12 mph46%29.95 "Hg10 mi
8:00 PM50 °FSunny.12 mph40%29.95 "Hg10 mi
7:30 PM50 °FSunny.13 mph37%29.98 "Hg10 mi
7:00 PM52 °FSunny.13 mph41%29.98 "Hg10 mi
6:30 PM52 °FSunny.13 mph32%29.98 "Hg10 mi
6:00 PM52 °FSunny.14 mph38%29.98 "Hg10 mi
5:30 PM52 °FPartly sunny.14 mph38%29.95 "HgN/A
5:00 PM52 °FScattered clouds.13 mph41%29.98 "HgN/A
4:30 PM54 °FPassing clouds.14 mph35%29.95 "HgN/A
4:00 PM52 °FScattered clouds.14 mph35%29.95 "HgN/A
Weather by CustomWeather, © 2016

See weather overviewHow to use our weather pages